Showing default

OPS 9346 (IDSCS 24), 3289

Orbit data source: Space-Track

OPS 9346 (IDSCS 24), 3289 is a payload satellite owned by SAMSO (US) in GEO that was launched on Thu, 13 Jun 1968 UTC via a TITAN IIIC launch vehicle from the Air Force Eastern Test Range (AFETR). Payload-class satellites include a variety of spacecraft equipped with specific instruments for various scientific and technological missions. These include communications satellites like Starlink; space stations such as the ISS; scientific satellites like the Hubble; Earth observation satellites from companies like Planet Labs, Umbra, and HawkEye 360; GPS; miniature CubeSats for education and research; and military/defense satellites.

Not visible in the next 10 days
Identifier
3289, 1968-050F
Orbit
GEO
Country
Flag of USUS
Related business
Manufacturer
Philco-Ford
Mission
Non-operational spacecraft
Bus & Motor
IDCSP, Unknown motor
Mass
45 kg wet, 45 kg dry
Launch date (UTC)
1968-06-13 (58 years ago)
Launch vehicle
TITAN IIIC
Launch site
Air Force Eastern Test Range (AFETR)
Object type
Payload
Rocket body
Debris
Shape & HBR
Unknown
Radar Cross Section
Medium (>0.1 m² and <1 m²)

Expand to show TLE details & history
Last TLE update: 10 hours ago

TLE from 10 hours ago
0 OPS 9346 (IDSCS 24)
1 03289U 68050F   25346.85377046 -.00000117  00000-0  00000-0 0  9991
2 03289   6.6939  55.0565 0046088 137.9024 258.2635  1.07288223 48652
Epoch: 2025-12-12T20:29Z
TLE epoch observation values (Epoch: 2025-12-12T20:29:25.767Z)
Latitude
3.91486°
Longitude
61.37251°
Altitude
33,965.729 km
Speed
3.142 km/s
True Right ascension
06h 02m 04s
True Declination
3° 54' 39"
Sunlit
Object was in daylight at epoch
Visualization orbit readout
Latitude
Unknown
Longitude
Unknown
Altitude
Unknown
Speed
Unknown
Apparent Right ascension
Unknown
Apparent Declination
Unknown
Sunlit
N/A
Visualization observer readout
Local Sidereal Time
05:23:57
Azimuth
Unknown
Elevation
Unknown
Doppler factor
Unknown
Orbital elements
Apogee altitude
34,114.487 km
Perigee altitude
33,742.954 km
Semi-major axis
40,306.858 km
Eccentricity
0.00461
Inclination
6.6939°
RAAN
55.0565°
Arg. of periapsis
137.9024°
True anomaly
257.74702°
Mean anomaly
258.2635°
Eccentric anomaly
258.0052°
Mean motion
0.26821 °/min
Orbital period
1,342.23 mins
BSTAR
0
Loading maneuver chart data...
Computing Atmospheric mass density...
Loading historical data...
Loading historical data...
Loading historical data...
Loading historical data...
Loading historical data...
Loading historical data...
Loading historical data...

Documentation

Showing up to 5 results
|